Vorticity
7 7 7 7 7 7 7 8 8 9 10 10 11 12 12 13 13 13 13 13 13 13 13 13 13 13 13 13 13 13 13 12 12 12 13 13 13 12 12 12 12 12 12 12 12 12 12 11 11 11 10 10 10 10 9 9 8 8 8 8 8 8 8 7 7 8 8 7 7 7 6 6 5 5 4 4 4 3 3 3 4 4 4 2 2 2 2 2 2 3 4 4 5 5 5 5 5 5 5 5 5 5 6
8 8 7 7 6 6 6 6 6 6 7 7 8 8 8 9 9 10 10 10 10 10 10 10 10 11 11 11 11 11 11 11 10 10 11 11 11 11 11 10 10 10 10 9 9 9 9 9 8 8 7 7 7 7 6 6 6 6 6 6 6 6 6 6 5 5 5 5 5 4 4 4 4 4 3 3 3 2 2 2 3 4 5 4 4 2 1 1 2 3 4 5 5 4 5 5 5 5 5 5 5 6 7
10 10 9 8 7 6 6 6 6 6 6 6 6 6 6 6 6 6 6 7 7 7 7 7 7 7 7 7 7 7 7 7 7 7 7 7 7 8 8 7 7 7 7 7 6 6 6 6 6 6 6 6 6 5 5 5 5 5 6 6 6 5 5 5 4 4 4 4 4 4 3 3 3 4 3 3 3 3 2 2 2 2 3 4 4 4 3 2 2 3 4 5 5 4 4 4 5 5 5 5 5 6 8
11 11 11 10 9 8 7 7 6 6 6 5 5 5 5 5 5 5 5 5 5 5 5 4 4 4 4 4 5 5 5 5 6 6 6 5 5 5 5 5 6 6 6 6 6 6 6 6 6 6 6 6 6 6 6 6 6 6 6 6 6 6 5 5 5 5 4 4 4 4 4 4 4 4 4 4 4 3 3 2 2 2 2 2 3 4 4 2 2 3 4 5 5 4 4 3 3 4 4 5 6 6 7
10 10 11 12 11 11 10 9 8 7 6 6 5 5 5 5 5 5 5 5 5 5 4 4 4 4 4 4 4 4 5 5 5 5 5 5 5 5 5 5 5 5 6 6 6 6 6 6 6 6 6 6 6 6 6 6 6 6 6 6 6 6 6 6 6 5 5 5 4 4 4 4 4 4 4 4 4 4 3 3 3 3 2 2 3 3 4 4 2 1 3 4 5 5 4 3 3 4 5 6 6 7 8
7 8 10 11 11 12 12 11 10 9 8 7 6 6 6 6 5 5 5 5 5 5 5 5 5 5 5 5 5 5 5 5 5 5 5 5 5 6 5 5 5 5 5 6 6 6 6 6 6 6 6 6 6 6 6 6 6 6 6 6 6 6 6 6 6 6 5 5 5 4 4 4 4 4 4 4 4 4 4 4 3 3 3 2 3 3 3 5 4 2 4 4 5 5 5 5 5 5 6 6 6 6 7
4 5 6 8 9 10 11 12 12 11 10 10 9 8 7 7 6 6 6 5 5 5 5 5 5 5 5 5 5 5 5 5 5 5 5 5 5 5 5 5 5 5 5 5 5 5 6 6 5 5 5 6 6 6 6 6 6 6 6 6 6 6 6 6 6 5 5 5 5 4 4 4 4 5 5 5 4 4 4 4 4 4 4 3 3 3 4 5 5 4 4 5 5 6 6 6 6 6 6 7 7 7 7
3 3 4 5 6 7 9 10 11 12 12 12 11 11 10 10 8 8 7 6 6 6 5 5 5 5 5 5 5 5 5 5 5 5 5 5 5 5 5 5 5 5 5 5 5 5 5 5 5 5 5 5 6 6 6 6 6 6 6 6 6 6 6 6 6 5 5 5 5 5 5 5 5 5 5 5 5 4 4 4 4 4 4 4 4 4 4 5 5 5 6 6 6 6 6 7 7 7 7 7 7 7 8
2 2 2 3 3 4 5 7 8 9 10 11 12 12 12 12 11 10 9 8 7 6 6 6 5 5 5 5 5 5 5 5 5 5 5 5 5 5 5 5 4 4 4 4 5 5 5 5 5 5 5 5 6 6 6 6 6 6 6 6 6 6 6 6 6 6 6 5 6 6 6 6 5 5 5 5 5 5 5 5 5 5 5 5 5 5 5 6 6 6 6 7 7 7 7 8 8 8 8 8 8 8 8
2 2 2 2 2 2 3 4 5 6 7 8 9 10 11 11 11 11 11 10 9 8 7 6 6 6 5 5 5 5 5 5 5 5 5 5 5 5 5 4 4 4 4 4 5 5 5 5 5 5 5 6 6 6 6 6 6 6 6 6 6 6 6 6 6 6 6 6 6 6 6 6 6 6 5 5 6 6 5 5 5 5 5 5 6 6 6 6 6 6 7 7 7 8 8 8 8 8 8 9 10 10 9
2 2 2 2 2 2 2 2 3 4 5 6 6 7 8 9 10 10 11 11 10 9 8 7 7 6 6 6 5 5 5 5 5 5 5 5 5 4 4 4 4 4 5 5 5 5 6 6 6 6 6 6 6 6 6 6 6 6 6 6 6 6 6 6 6 5 6 6 6 6 6 6 6 6 6 6 6 6 6 6 6 6 6 6 6 6 6 6 7 7 7 8 8 9 9 10 10 10 12 10 10 10 11
1 1 2 2 2 2 2 2 2 2 3 4 4 5 6 6 7 8 9 10 10 10 9 9 8 7 7 6 6 6 5 5 5 5 5 5 5 5 5 5 5 5 5 5 6 6 6 6 6 6 6 6 6 6 6 6 6 6 6 6 6 6 6 6 6 6 6 6 6 6 6 6 6 6 6 6 7 7 7 7 7 7 6 6 6 6 7 7 7 7 8 8 9 10 10 10 11 11 11 10 10 11 11
1 1 1 1 1 1 1 1 2 2 2 3 3 3 4 4 5 6 7 8 8 9 9 9 9 8 8 7 7 6 6 6 6 5 5 5 5 5 5 5 5 5 5 5 6 6 6 7 7 7 7 7 7 7 7 7 7 6 6 6 6 6 6 6 6 6 6 6 6 6 6 6 6 6 7 7 7 8 8 8 7 7 7 7 7 7 7 7 7 8 9 10 10 10 11 11 10 10 10 10 10 10 10
0 1 1 1 1 1 1 1 1 2 2 2 2 3 3 3 4 4 5 6 6 7 8 8 8 8 8 8 8 7 7 6 6 6 6 6 5 5 5 5 5 5 5 6 6 6 7 7 8 8 8 8 8 8 8 7 7 7 7 7 7 7 7 7 6 6 6 7 7 7 7 7 7 7 7 8 8 8 8 8 8 8 7 7 7 7 8 8 8 9 10 10 10 10 10 10 9 9 8 8 8 8 8
-0 0 1 1 1 1 1 1 1 1 2 2 3 3 2 3 3 4 4 4 5 5 6 7 8 8 8 8 8 8 7 7 6 6 6 6 6 6 5 5 5 5 5 6 6 7 7 8 8 9 9 9 9 9 8 8 8 8 7 7 7 7 7 7 7 7 7 7 7 7 7 8 8 8 8 8 8 8 8 8 8 8 8 8 8 9 9 9 9 10 10 10 10 9 9 8 8 7 7 7 6 6 6
-0 -0 0 1 2 2 2 1 1 1 1 2 3 3 3 3 3 3 4 3 3 4 4 5 6 7 8 8 8 8 7 7 7 7 6 6 6 6 5 5 5 5 5 6 6 7 8 9 9 10 10 10 9 9 9 9 8 8 8 8 8 7 7 7 7 7 7 7 7 7 8 8 8 8 8 8 8 8 8 8 8 8 9 9 10 10 10 10 10 10 9 9 8 8 7 7 6 6 6 6 5 5 5
-1 -0 -0 1 2 2 2 2 2 1 1 2 2 3 3 3 3 3 3 3 3 3 3 4 5 6 6 7 7 7 7 7 7 7 7 6 6 6 5 5 5 5 6 6 7 7 8 9 9 10 10 9 9 9 8 8 8 8 8 8 8 7 7 7 7 7 7 7 7 7 7 7 8 8 8 8 8 8 8 8 9 9 10 10 11 11 11 10 10 9 8 8 7 7 6 6 6 6 6 5 5 5 5
-0 -1 -0 0 1 2 2 2 2 2 2 2 2 2 3 3 3 3 4 3 3 2 2 3 4 4 5 6 6 7 7 7 7 7 7 6 6 6 5 5 5 5 6 6 7 8 8 9 9 9 9 9 8 8 8 8 7 7 7 7 7 7 7 7 7 7 6 6 6 6 7 7 7 8 8 8 8 8 9 9 10 10 11 11 11 11 10 10 9 8 7 7 6 6 6 6 6 6 6 6 6 6 6
1 0 -0 0 1 2 2 2 2 2 2 2 2 2 2 2 2 3 4 4 3 2 2 2 3 3 4 4 5 6 6 7 7 8 8 7 6 6 5 5 5 6 6 7 7 8 8 9 9 9 8 8 7 7 7 7 7 7 7 7 7 7 7 6 6 6 6 6 6 6 7 7 7 8 8 8 9 9 10 10 11 11 12 11 11 10 9 8 7 7 6 6 6 6 6 6 6 6 6 6 6 6 6
2 2 1 1 2 2 2 2 2 2 2 2 2 2 1 1 2 2 3 4 3 3 2 2 2 3 3 3 4 5 5 6 7 7 8 8 7 7 6 6 6 6 7 7 8 8 9 9 8 8 8 7 7 7 7 7 7 7 7 7 7 7 7 7 7 7 7 6 6 7 7 7 8 8 9 10 10 10 11 11 11 11 11 10 9 8 8 7 7 7 6 6 6 6 6 6 6 6 6 6 6 6 6
2 2 2 2 3 3 3 2 1 1 2 2 2 2 1 1 1 2 2 3 4 4 3 2 2 3 3 3 3 4 4 5 6 7 7 7 7 7 7 7 7 7 8 8 8 9 9 8 8 8 7 7 7 7 7 7 7 7 7 7 7 7 7 7 7 7 7 7 7 7 8 8 9 9 10 11 11 11 11 11 11 10 10 9 8 8 7 7 7 7 7 6 6 6 6 6 6 6 5 5 5 5 5
2 2 2 2 3 4 4 2 1 0 1 1 2 2 2 1 1 1 2 3 4 4 3 3 3 3 3 3 3 3 3 4 4 5 6 6 7 7 7 7 7 8 8 9 9 9 9 8 8 7 7 7 7 7 7 7 7 7 7 7 8 8 8 8 8 8 8 8 8 8 8 9 10 10 11 11 11 11 11 10 10 9 8 8 7 7 7 7 7 7 6 6 6 6 6 5 5 5 5 5 5 4 4
2 2 2 1 2 3 4 3 1 0 0 0 1 2 2 2 2 2 2 3 3 3 3 3 3 4 3 3 2 2 2 2 3 4 4 5 6 6 7 7 7 8 8 9 9 9 9 8 8 7 7 7 7 7 7 7 7 7 8 8 8 8 8 8 8 8 8 8 8 9 9 10 10 11 12 12 11 11 10 10 9 8 7 7 7 7 7 7 6 6 6 6 6 6 6 5 5 5 5 5 5 4 5
2 2 1 -1 -0 1 3 2 1 1 0 0 1 2 3 3 3 2 2 3 4 4 3 3 4 4 4 3 3 2 1 2 2 3 3 4 5 6 6 6 6 7 8 8 9 9 9 8 8 7 7 7 7 7 7 8 8 8 8 8 8 9 9 9 9 9 9 9 9 10 10 10 11 12 12 11 10 10 9 8 8 7 7 7 7 7 6 6 6 6 6 6 6 5 5 5 5 5 5 5 5 5 5
2 1 -0 -2 -2 -0 2 2 2 2 1 1 1 2 3 4 4 4 3 4 4 4 4 4 4 4 4 3 2 2 1 2 2 3 3 4 4 5 6 5 6 7 7 8 8 8 8 8 8 8 8 8 8 8 8 8 8 8 8 8 9 9 10 10 10 10 10 10 10 10 11 11 11 12 11 10 10 9 8 7 7 7 6 6 6 6 6 6 6 6 5 5 5 5 5 5 5 5 6 6 6 6 6
2 0 -2 -2 -0 2 3 4 3 2 2 2 2 2 3 4 5 5 4 4 4 4 4 4 4 4 3 3 2 2 2 2 2 2 3 4 4 4 5 5 5 6 7 8 8 8 8 8 8 8 8 8 9 9 9 9 9 9 9 9 9 10 10 10 10 10 10 11 11 11 11 11 11 11 10 10 8 8 7 7 6 6 6 6 6 6 5 5 5 5 5 5 5 6 6 6 6 6 6 6 7 7 7
1 -2 -3 1 5 8 9 7 5 3 2 2 2 3 4 5 5 6 5 5 5 4 4 4 4 4 3 3 2 2 2 2 2 2 3 4 4 4 4 4 5 6 7 7 7 7 7 7 8 8 8 9 9 9 9 9 9 9 9 9 10 10 10 10 11 11 11 11 11 11 11 11 10 10 10 8 8 7 6 6 6 6 6 6 5 5 5 5 5 5 5 6 6 6 7 7 7 7 7 8 8 8 8
-0 -0 3 9 13 15 13 9 6 3 2 2 2 3 5 5 5 6 6 5 4 4 3 3 4 4 3 3 3 2 2 2 2 2 3 4 4 4 4 4 4 5 6 7 7 7 7 7 7 8 9 9 10 10 10 10 10 10 10 10 10 10 10 10 11 11 11 11 11 11 11 10 10 9 8 8 7 6 6 6 6 6 5 5 5 5 5 5 6 6 6 6 7 7 7 8 8 8 9 9 9 9 9
1 4 10 15 17 16 12 6 3 2 1 2 3 4 6 6 5 4 5 4 3 3 3 3 4 4 4 3 3 3 3 2 2 2 3 4 4 4 4 4 4 5 6 6 7 7 7 7 7 8 9 10 10 10 10 10 10 10 10 10 10 10 10 10 11 11 11 11 10 10 10 10 9 8 8 7 6 6 6 5 5 5 5 5 5 5 5 6 6 6 7 7 7 7 8 8 8 8 9 9 9 9 9
3 7 12 14 14 12 7 3 2 1 2 3 4 4 5 6 6 4 3 3 3 3 4 4 4 4 4 3 3 3 3 2 2 3 4 4 5 5 5 4 4 5 6 6 7 7 6 7 7 8 9 10 10 10 11 11 11 10 10 10 10 10 10 11 11 10 10 10 10 9 9 9 8 7 7 6 6 6 5 5 5 5 5 5 5 5 5 6 6 6 7 7 7 7 7 7 7 7 7 7 7 8 8
3 6 10 11 10 8 4 2 2 2 3 3 2 2 3 4 5 4 3 3 4 5 5 5 4 4 4 4 4 4 4 3 3 3 4 4 5 5 5 5 4 5 6 6 6 6 6 7 7 8 9 10 10 11 11 11 11 11 10 10 10 10 11 11 10 10 10 9 9 8 8 8 7 7 6 6 6 6 5 5 5 5 5 5 5 5 6 6 6 6 6 6 6 6 6 6 6 5 5 5 5 5 5
3 5 7 8 8 7 5 4 4 4 4 1 0 0 2 3 4 4 4 6 6 6 6 5 5 4 4 4 5 5 4 4 3 4 4 5 5 6 6 5 5 5 6 6 6 6 7 7 8 8 9 10 10 11 11 11 11 10 10 10 10 10 10 10 10 10 9 9 8 8 7 7 7 6 6 6 6 5 5 5 5 5 5 5 5 5 6 6 6 6 5 5 5 5 4 4 4 4 3 3 3 3 3
4 6 8 9 8 7 5 5 5 5 3 -1 -2 -2 1 3 4 5 6 8 8 7 6 5 5 5 5 5 5 5 6 4 4 4 5 5 6 6 6 6 6 6 5 6 6 6 7 7 8 9 9 10 11 11 11 11 11 10 10 10 10 10 10 10 10 9 9 8 8 7 7 6 6 6 6 6 6 5 5 5 5 5 4 4 5 5 5 5 5 5 4 4 4 4 3 3 3 2 2 2 2 2 2
6 8 10 10 9 6 4 5 5 4 1 -2 -3 -1 2 4 6 7 8 8 8 7 5 5 5 5 6 5 5 5 6 5 4 4 5 6 6 6 6 6 6 6 6 6 6 7 7 7 8 8 9 10 10 11 11 11 11 10 10 10 10 10 10 9 9 9 8 8 8 7 7 6 6 6 6 6 6 6 5 5 5 4 4 4 4 4 4 4 4 4 3 3 3 2 2 2 2 2 1 1 1 1 1
8 10 11 10 8 5 4 4 3 2 -1 -2 -1 2 5 7 8 8 8 8 7 6 5 5 5 5 6 6 6 6 6 6 5 5 5 6 7 6 6 6 6 6 6 6 7 7 7 8 8 9 9 10 10 11 11 11 10 10 10 10 9 9 9 9 8 8 8 8 8 7 7 7 6 6 6 6 6 6 5 5 5 4 4 4 4 4 3 3 3 3 2 2 2 2 2 1 1 1 1 1 1 1 1
8 9 8 6 5 4 3 3 2 1 -1 -0 2 6 9 10 9 8 7 7 6 5 5 5 5 6 6 6 6 6 6 6 6 6 6 7 7 6 6 6 6 6 7 7 7 7 7 8 8 9 9 10 10 10 11 11 10 10 10 9 9 9 9 8 8 8 8 8 8 7 7 7 6 6 6 6 6 5 5 5 4 4 4 4 3 3 3 3 2 2 2 2 1 1 1 1 1 1 1 1 1 1 2
7 7 5 4 3 3 3 3 3 2 2 4 6 9 10 10 8 6 6 6 6 6 5 6 6 7 6 6 6 6 6 6 7 7 7 7 7 6 7 7 7 7 7 7 7 7 8 8 9 9 9 9 10 10 10 10 10 10 10 10 9 9 8 8 8 8 8 8 8 7 7 7 6 6 6 5 5 5 4 4 4 4 3 3 3 3 3 2 2 2 2 2 1 1 1 1 1 1 2 2 2 2 2
6 5 4 3 3 3 3 3 2 3 4 6 8 9 8 7 5 5 5 6 7 7 7 7 7 7 7 7 6 6 7 7 7 7 8 7 7 7 7 7 7 7 8 7 7 7 8 8 8 8 9 9 9 10 9 10 10 10 10 10 10 9 9 8 8 8 8 8 8 8 8 7 7 6 6 5 5 4 4 4 3 3 3 3 3 2 2 2 2 2 2 2 2 2 2 2 2 2 2 2 2 2 3
4 4 3 2 2 2 2 1 2 2 4 5 6 6 6 4 4 5 7 8 9 8 8 8 7 7 7 7 7 7 7 7 8 8 8 7 7 7 7 7 7 7 8 7 7 8 8 8 8 8 8 9 9 9 8 9 9 10 10 10 10 10 9 9 8 8 8 8 8 8 8 8 7 7 7 6 6 5 5 4 4 4 4 3 3 3 3 3 3 2 2 2 2 2 3 3 3 3 3 3 3 4 4
3 2 1 1 1 0 -0 0 2 2 4 4 4 4 4 4 5 7 9 10 10 9 10 8 7 7 7 7 7 7 8 8 8 9 9 8 8 8 7 7 7 8 7 7 8 8 8 8 8 8 8 8 8 8 8 9 9 9 9 10 10 10 9 9 8 8 8 7 7 7 7 7 7 7 7 7 7 6 6 6 6 5 5 4 4 4 4 4 4 4 3 3 3 3 3 3 4 4 4 4 4 4 4
1 1 0 0 0 1 1 3 4 4 6 6 6 6 6 7 8 9 10 10 10 9 9 9 8 8 7 7 7 8 9 9 10 9 9 9 8 8 7 7 8 8 8 8 8 8 8 8 8 7 8 8 8 8 8 8 8 8 9 9 9 9 9 9 9 8 8 7 7 7 6 6 6 6 6 6 6 6 6 6 6 6 6 6 6 6 5 5 5 5 4 4 4 4 4 4 4 4 4 4 4 5 5
1 2 2 2 3 4 5 6 7 8 8 8 8 8 8 10 10 10 10 10 9 9 9 10 10 9 8 8 8 9 10 10 10 10 10 9 8 8 7 7 8 8 8 8 8 8 7 7 7 7 7 7 7 8 8 8 8 8 8 9 9 9 9 9 9 9 9 9 9 8 8 7 7 7 6 6 6 6 6 6 6 6 6 6 6 6 6 6 6 6 6 6 6 5 5 5 5 5 5 5 5 5 5
3 4 5 5 6 7 8 8 9 10 10 9 9 9 9 10 10 10 10 10 9 9 9 10 10 10 10 10 10 11 11 11 12 11 10 9 8 8 8 8 8 8 8 7 7 7 7 7 7 7 7 7 7 8 8 7 8 8 8 8 8 9 9 9 10 10 10 10 10 10 10 9 9 8 8 8 7 7 7 7 6 6 6 6 6 6 6 6 6 7 7 7 7 7 7 7 7 6 6 6 6 6 6
6 7 7 7 7 7 8 9 10 10 10 9 9 9 10 9 9 10 10 10 10 10 9 10 11 11 11 11 12 12 13 12 12 11 10 9 8 8 8 8 8 8 7 7 7 6 6 6 6 6 6 7 7 7 7 7 7 8 8 8 8 8 9 9 9 9 10 10 10 10 10 10 10 10 9 9 9 9 8 8 8 7 7 7 7 7 7 7 7 7 8 8 8 8 8 8 8 8 8 8 8 8 7
8 8 8 8 7 8 8 9 9 9 9 8 9 9 9 9 9 9 9 10 10 10 10 10 11 12 12 12 12 12 13 13 12 10 9 9 8 8 8 8 8 7 7 7 7 6 6 6 5 6 6 6 6 6 6 7 7 7 7 7 7 7 8 8 8 8 9 9 9 9 9 9 9 9 9 9 9 9 9 9 9 9 9 9 8 8 8 8 8 8 8 8 8 8 8 8 9 9 9 9 9 9 8
7 7 8 7 7 7 7 8 8 8 8 8 8 8 8 8 8 8 8 9 10 10 10 10 11 12 12 11 11 12 13 13 12 11 10 8 8 8 8 8 8 7 7 6 6 6 5 5 5 5 6 6 6 6 6 7 7 7 7 7 7 7 7 7 7 7 8 8 8 8 8 8 8 9 9 9 9 9 9 9 9 9 9 9 10 10 10 9 9 9 9 9 8 8 8 8 9 9 9 9 9 9 9
7 7 7 7 7 7 7 8 8 8 8 8 8 8 8 8 8 8 8 9 10 11 12 11 11 11 10 10 10 11 12 12 12 11 10 8 8 8 8 8 8 7 7 6 6 5 5 5 5 5 5 5 6 6 6 6 6 6 7 6 6 6 7 7 7 7 7 7 7 7 8 8 8 8 8 8 8 8 8 9 9 9 9 9 9 9 9 9 9 9 9 9 8 8 8 8 8 8 8 8 8 8 8
8 8 8 7 6 6 7 8 8 8 7 7 7 6 6 6 7 8 8 9 9 10 12 12 12 10 9 8 9 10 11 12 12 10 8 7 8 8 8 7 7 7 7 6 5 4 4 4 4 4 4 5 5 6 6 6 6 6 6 6 6 6 6 6 6 6 6 6 7 7 7 8 8 8 8 8 8 8 8 8 8 8 8 8 8 8 8 8 8 8 8 8 8 8 8 8 8 8 8 8 8 8 8
8 8 8 7 6 6 6 7 8 7 7 6 6 6 5 6 6 7 8 9 10 10 12 14 13 11 8 7 7 9 10 11 11 10 8 7 6 7 9 9 8 7 6 5 4 3 3 3 3 4 4 5 5 5 5 5 6 6 6 6 6 6 6 6 6 6 6 7 7 7 7 8 8 8 8 8 8 8 8 8 8 8 8 8 8 8 8 8 8 8 8 8 8 8 8 8 8 8 8 8 8 8 8
7 7 7 7 7 6 6 7 7 7 6 6 5 5 4 5 6 7 7 8 10 11 12 15 15 12 8 6 7 8 9 10 9 9 9 8 7 7 7 8 7 6 4 3 3 3 2 2 3 3 4 4 4 5 5 5 5 5 6 6 6 6 6 6 6 6 6 7 7 7 8 8 8 8 8 8 8 8 8 8 8 8 7 7 7 7 7 7 7 8 8 8 8 8 8 8 8 8 8 8 8 8 8
7 7 7 7 7 7 7 7 7 6 6 5 4 4 5 5 6 7 7 8 9 11 12 12 13 12 10 6 6 7 9 9 9 9 8 8 9 8 6 4 3 3 3 3 3 3 1 2 3 3 4 4 4 4 5 5 5 5 5 5 5 6 6 6 6 6 6 7 7 7 7 8 8 8 8 8 8 8 8 8 8 8 8 8 8 8 8 8 8 8 8 8 8 8 8 8 9 9 9 9 9 9 9
6 7 7 7 7 7 7 7 7 6 5 4 4 4 5 6 6 7 8 8 9 10 12 10 9 9 9 5 4 5 9 9 10 10 8 7 8 8 7 5 4 4 3 2 2 2 1 3 4 4 4 4 4 4 5 5 5 5 5 5 5 6 6 6 6 6 6 6 6 6 7 7 7 7 8 8 8 8 8 8 8 8 8 8 8 8 8 8 8 8 8 9 9 9 9 9 9 9 9 10 9 9 9
5 6 7 7 7 8 8 8 8 7 6 4 4 4 4 5 6 6 7 8 9 10 12 11 10 7 2 0 2 6 12 12 11 10 9 7 6 6 7 8 7 6 2 0 -0 1 4 4 4 4 4 4 4 5 5 5 6 6 6 6 6 6 6 6 6 6 6 6 6 6 6 6 7 7 8 8 8 8 8 8 8 9 9 9 9 9 9 10 10 10 10 10 10 10 10 10 10 10 10 10 10 9 9
4 5 6 7 8 8 9 9 9 8 7 5 4 4 4 5 6 7 7 8 10 10 12 14 13 7 -4 -5 2 10 14 13 11 9 8 8 7 6 6 7 6 3 2 1 2 2 4 3 3 3 4 4 5 5 6 5 6 6 6 6 6 6 6 6 6 6 5 6 6 6 6 7 7 7 8 8 8 9 9 9 9 9 9 9 9 10 10 10 10 11 11 11 11 11 11 11 10 10 10 10 10 9 8
4 4 5 6 7 8 9 10 10 9 8 6 5 4 4 6 7 7 7 8 9 12 15 15 10 3 -7 -1 8 14 14 12 10 9 7 8 8 8 5 3 3 2 3 6 6 4 2 2 2 3 4 4 5 6 6 6 6 6 6 6 6 7 7 6 6 6 6 6 6 6 6 7 7 8 8 8 9 9 9 9 9 9 9 9 10 10 10 11 11 11 11 11 11 11 11 11 11 10 10 10 9 8 8
3 3 3 4 6 8 9 10 10 10 8 7 6 5 6 7 6 5 5 6 10 14 19 15 7 0 -2 5 10 13 13 10 9 9 7 7 8 8 6 4 3 2 1 2 3 3 2 1 2 4 6 6 6 6 6 5 5 6 6 6 6 6 7 7 7 7 7 7 7 7 7 7 7 8 8 9 9 10 10 10 10 10 10 10 10 10 10 11 11 10 10 10 10 10 10 10 10 10 9 9 8 8 7
2 2 2 4 5 7 8 10 10 10 9 8 6 6 6 6 5 5 6 6 10 15 20 13 5 -0 2 10 13 12 10 8 8 8 8 7 7 7 7 6 4 3 2 1 1 2 3 3 4 6 4 5 6 5 4 5 5 5 5 6 6 6 7 7 7 7 7 7 7 7 7 7 8 8 8 9 10 10 10 11 11 11 11 11 11 11 11 10 10 10 10 10 9 9 9 9 9 8 8 8 7 7 7
1 1 2 3 4 5 8 10 11 11 10 8 7 6 6 6 6 6 5 5 10 14 16 10 2 -2 4 11 13 12 9 7 7 7 8 7 6 6 6 4 4 3 4 4 4 3 2 4 6 6 0 3 6 6 4 4 5 5 4 4 5 6 6 7 7 7 7 7 7 7 7 8 8 8 8 9 10 10 11 11 11 12 12 12 12 12 11 11 10 10 10 9 9 8 8 8 7 7 7 7 7 6 6
0 0 1 2 3 5 7 10 11 12 11 9 7 6 6 8 7 5 1 4 10 15 13 6 2 1 5 11 13 12 8 7 6 6 6 7 7 6 5 3 2 2 2 3 4 4 2 3 4 4 3 3 3 4 5 4 3 3 3 3 4 4 5 6 6 7 7 7 7 7 7 8 8 8 9 9 10 10 11 11 12 12 12 12 12 11 11 11 10 10 10 9 9 8 8 7 7 7 7 7 7 7 7
0 -0 -0 1 3 4 6 9 11 12 12 10 9 8 7 7 5 2 -1 6 14 17 11 4 1 2 7 12 13 10 6 6 6 6 6 6 6 6 4 3 2 1 1 1 2 2 4 5 4 3 4 3 -0 -2 0 1 0 -0 -0 1 2 3 4 5 6 6 7 7 7 7 7 7 8 8 10 10 10 11 11 12 12 12 12 12 11 11 10 10 10 9 9 8 8 8 7 7 7 7 7 7 7 7 7
0 -0 -1 1 3 4 5 8 10 12 13 12 11 9 7 5 3 0 0 10 16 16 8 2 2 5 10 14 13 10 5 5 5 6 7 7 6 4 4 3 2 2 1 1 2 2 4 5 5 5 4 3 2 -1 -5 -4 -4 -3 -3 -2 -1 0 1 3 4 5 6 7 7 8 8 8 8 9 10 10 10 11 11 12 12 12 11 11 10 10 10 9 9 8 8 8 7 7 7 7 7 7 7 7 7 7 7
Height
3167 3167 3166 3166 3166 3165 3165 3165 3164 3164 3164 3164 3164 3164 3164 3164 3164 3164 3164 3163 3163 3163 3163 3163 3163 3163 3163 3163 3163 3163 3163 3164 3163 3163 3163 3163 3163 3163 3163 3163 3163 3163 3163 3163 3163 3163 3163 3163 3163 3163 3163 3162 3162 3162 3161 3161 3161 3160 3160 3159 3159 3159 3159 3158 3158 3158 3158 3158 3157 3157 3157 3157 3157 3156 3156 3156 3156 3156 3155 3155 3154 3154 3154 3154 3154 3154 3154 3154 3153 3153 3153 3152 3152 3152 3152 3152 3151 3151 3151 3151 3151 3151 3150
3168 3168 3167 3167 3166 3166 3166 3165 3165 3165 3164 3164 3164 3164 3164 3164 3164 3164 3164 3164 3163 3163 3163 3163 3164 3164 3163 3163 3164 3164 3164 3164 3164 3163 3163 3163 3163 3163 3163 3163 3163 3163 3162 3162 3162 3162 3162 3162 3162 3162 3162 3162 3162 3161 3161 3161 3160 3160 3160 3159 3159 3159 3158 3158 3158 3157 3157 3157 3157 3157 3157 3156 3156 3156 3156 3155 3155 3155 3155 3154 3154 3154 3154 3154 3153 3153 3153 3153 3152 3152 3152 3152 3152 3152 3151 3151 3151 3150 3150 3150 3150 3150 3150
3168 3168 3168 3167 3167 3167 3166 3166 3165 3165 3165 3165 3164 3164 3164 3164 3164 3164 3164 3164 3164 3164 3164 3164 3164 3164 3164 3164 3164 3164 3164 3164 3163 3163 3163 3163 3163 3163 3163 3163 3162 3162 3162 3162 3162 3162 3162 3162 3162 3162 3162 3161 3161 3161 3160 3160 3160 3159 3159 3159 3158 3158 3158 3157 3157 3157 3157 3156 3156 3156 3156 3156 3156 3155 3155 3155 3155 3154 3154 3154 3154 3153 3153 3153 3153 3153 3153 3152 3152 3151 3151 3152 3151 3151 3151 3150 3150 3150 3149 3150 3149 3150 3150
3169 3168 3168 3168 3168 3167 3167 3166 3166 3166 3165 3165 3165 3165 3165 3165 3165 3164 3164 3164 3164 3164 3164 3164 3164 3164 3164 3164 3164 3164 3164 3163 3163 3163 3163 3163 3163 3163 3163 3162 3162 3162 3162 3162 3162 3162 3162 3162 3162 3161 3161 3161 3160 3160 3160 3159 3159 3159 3159 3158 3158 3157 3157 3157 3156 3156 3156 3156 3155 3155 3155 3155 3155 3155 3154 3154 3154 3154 3154 3153 3153 3153 3153 3153 3152 3152 3151 3152 3152 3151 3150 3150 3150 3150 3150 3150 3149 3149 3149 3149 3149 3149 3149
3169 3169 3168 3168 3168 3168 3167 3167 3167 3166 3166 3166 3165 3165 3165 3165 3165 3165 3165 3165 3164 3164 3164 3164 3164 3164 3164 3164 3164 3164 3164 3164 3163 3163 3163 3163 3163 3163 3163 3162 3162 3162 3161 3161 3161 3161 3161 3161 3161 3161 3160 3160 3160 3159 3159 3159 3159 3158 3158 3157 3157 3157 3156 3156 3156 3155 3155 3155 3155 3155 3154 3154 3154 3154 3154 3154 3154 3153 3153 3153 3152 3152 3152 3151 3151 3151 3150 3151 3151 3150 3150 3149 3149 3150 3149 3149 3149 3148 3148 3148 3148 3148 3148
3169 3169 3169 3169 3168 3168 3168 3167 3167 3167 3166 3166 3166 3166 3166 3165 3165 3165 3165 3165 3165 3165 3165 3164 3164 3164 3164 3164 3164 3164 3164 3164 3164 3163 3163 3163 3162 3162 3162 3162 3162 3161 3161 3161 3161 3161 3161 3161 3160 3160 3160 3159 3159 3159 3158 3158 3158 3157 3157 3157 3156 3156 3155 3155 3155 3155 3154 3154 3154 3154 3154 3154 3154 3153 3153 3153 3153 3153 3152 3152 3152 3151 3151 3151 3150 3150 3150 3150 3150 3149 3149 3149 3149 3149 3148 3148 3148 3148 3147 3147 3147 3147 3148
3170 3169 3169 3169 3169 3168 3168 3168 3167 3167 3167 3167 3167 3166 3166 3166 3166 3166 3166 3166 3166 3165 3165 3165 3165 3164 3164 3164 3164 3164 3164 3164 3164 3163 3163 3163 3162 3162 3162 3162 3161 3161 3161 3160 3160 3160 3160 3160 3160 3159 3159 3159 3158 3158 3158 3157 3157 3157 3156 3156 3156 3155 3155 3154 3154 3154 3154 3153 3153 3153 3153 3153 3153 3153 3152 3152 3152 3152 3151 3151 3151 3150 3150 3150 3150 3150 3149 3149 3149 3149 3149 3148 3148 3148 3147 3147 3147 3147 3146 3146 3146 3146 3146
3170 3170 3169 3169 3169 3169 3168 3168 3168 3168 3167 3167 3167 3167 3167 3167 3166 3166 3166 3166 3166 3166 3166 3165 3165 3165 3165 3164 3164 3164 3164 3164 3164 3164 3163 3163 3163 3162 3162 3161 3161 3161 3160 3160 3160 3160 3160 3159 3159 3159 3159 3158 3158 3157 3157 3156 3156 3156 3155 3155 3155 3154 3154 3154 3154 3153 3153 3153 3152 3152 3152 3152 3152 3152 3151 3151 3151 3151 3151 3150 3150 3149 3149 3149 3149 3149 3149 3148 3148 3148 3148 3148 3147 3147 3147 3146 3146 3146 3145 3145 3145 3145 3145
3170 3170 3170 3169 3169 3169 3169 3168 3168 3168 3168 3168 3167 3167 3167 3167 3167 3167 3166 3166 3166 3166 3166 3166 3165 3165 3165 3165 3164 3164 3164 3164 3164 3164 3163 3163 3163 3162 3162 3161 3161 3160 3160 3160 3159 3159 3159 3159 3159 3158 3158 3157 3157 3157 3156 3156 3155 3155 3155 3154 3154 3154 3154 3153 3153 3152 3152 3152 3151 3151 3151 3151 3151 3151 3151 3150 3150 3150 3150 3149 3149 3149 3148 3148 3148 3148 3147 3147 3147 3147 3147 3147 3146 3146 3146 3145 3145 3144 3144 3144 3144 3144 3144
3171 3170 3170 3170 3169 3169 3169 3169 3169 3168 3168 3168 3168 3167 3167 3167 3167 3167 3167 3166 3166 3166 3166 3166 3165 3165 3165 3165 3165 3164 3164 3164 3164 3164 3163 3163 3163 3162 3162 3161 3161 3160 3160 3159 3159 3159 3159 3158 3158 3157 3157 3157 3156 3156 3155 3155 3155 3154 3154 3154 3153 3153 3153 3152 3152 3152 3151 3151 3151 3150 3150 3150 3150 3150 3150 3149 3149 3149 3149 3149 3148 3148 3147 3147 3147 3146 3146 3146 3146 3146 3146 3145 3145 3145 3145 3144 3144 3144 3144 3143 3143 3143 3144
3171 3170 3170 3170 3170 3169 3169 3169 3169 3169 3168 3168 3168 3168 3167 3167 3167 3167 3167 3166 3166 3166 3166 3165 3165 3165 3165 3165 3165 3164 3164 3164 3164 3163 3163 3163 3162 3162 3162 3161 3161 3160 3160 3159 3159 3159 3158 3158 3157 3157 3156 3156 3155 3155 3154 3154 3154 3154 3153 3153 3153 3152 3152 3151 3151 3151 3150 3150 3150 3149 3149 3149 3149 3149 3149 3149 3149 3149 3148 3148 3147 3147 3146 3146 3146 3145 3145 3145 3145 3145 3145 3144 3144 3144 3144 3144 3144 3144 3143 3142 3142 3142 3143
3171 3170 3170 3170 3170 3169 3169 3169 3169 3169 3168 3168 3168 3168 3167 3167 3167 3167 3166 3166 3166 3166 3166 3165 3165 3165 3165 3164 3164 3164 3164 3164 3163 3163 3163 3162 3162 3162 3161 3161 3160 3160 3159 3159 3159 3159 3158 3158 3157 3156 3156 3155 3154 3154 3154 3153 3153 3153 3152 3152 3152 3151 3151 3151 3150 3150 3149 3149 3149 3149 3149 3149 3149 3148 3148 3148 3148 3148 3147 3147 3146 3146 3145 3145 3145 3144 3144 3144 3144 3144 3144 3144 3143 3143 3143 3143 3143 3142 3142 3141 3141 3141 3141
3170 3170 3170 3170 3170 3169 3169 3169 3169 3169 3168 3168 3168 3168 3167 3167 3167 3167 3166 3166 3166 3166 3165 3165 3165 3164 3164 3164 3164 3164 3163 3163 3163 3163 3162 3162 3161 3161 3161 3160 3160 3159 3159 3159 3158 3158 3158 3157 3157 3156 3155 3155 3154 3153 3153 3152 3152 3152 3151 3151 3151 3150 3150 3150 3149 3149 3149 3148 3148 3148 3148 3148 3148 3147 3147 3147 3147 3147 3146 3146 3145 3145 3144 3144 3144 3144 3143 3143 3143 3143 3143 3143 3142 3142 3142 3141 3141 3141 3141 3140 3140 3140 3140
3170 3170 3170 3170 3169 3169 3169 3169 3169 3169 3168 3168 3168 3168 3167 3167 3167 3166 3166 3166 3166 3165 3165 3165 3164 3164 3164 3164 3164 3163 3163 3163 3162 3162 3161 3161 3161 3160 3160 3159 3159 3159 3159 3158 3158 3158 3157 3157 3156 3156 3155 3154 3154 3153 3152 3152 3151 3151 3150 3150 3150 3149 3149 3149 3149 3148 3148 3147 3147 3147 3147 3147 3147 3147 3146 3146 3146 3146 3145 3145 3144 3144 3144 3143 3143 3143 3142 3142 3142 3142 3142 3142 3141 3141 3141 3141 3140 3140 3140 3140 3139 3139 3139
3170 3170 3170 3169 3169 3169 3169 3169 3169 3168 3168 3168 3168 3167 3167 3167 3167 3166 3166 3166 3165 3165 3165 3164 3164 3164 3164 3163 3163 3163 3162 3162 3162 3161 3161 3160 3160 3160 3159 3159 3158 3158 3158 3158 3158 3157 3157 3156 3156 3155 3154 3154 3153 3153 3152 3151 3151 3150 3150 3149 3149 3149 3149 3148 3148 3147 3147 3146 3146 3146 3146 3146 3146 3146 3145 3145 3145 3145 3144 3144 3144 3143 3143 3142 3142 3142 3141 3141 3141 3141 3141 3140 3140 3140 3140 3140 3140 3139 3139 3139 3139 3139 3139
3170 3169 3169 3169 3169 3169 3169 3169 3168 3168 3168 3168 3167 3167 3167 3167 3166 3166 3166 3166 3165 3165 3165 3164 3164 3164 3163 3163 3163 3162 3162 3161 3161 3161 3160 3160 3159 3159 3159 3158 3158 3157 3157 3157 3157 3157 3156 3156 3155 3155 3154 3154 3153 3152 3152 3151 3150 3150 3149 3149 3149 3148 3148 3147 3147 3146 3146 3145 3145 3145 3145 3145 3145 3145 3145 3144 3144 3144 3144 3143 3143 3142 3142 3142 3141 3141 3141 3140 3140 3140 3140 3139 3139 3139 3139 3139 3139 3139 3139 3138 3138 3138 3138
3169 3169 3169 3169 3169 3169 3169 3168 3168 3168 3168 3167 3167 3167 3167 3166 3166 3166 3166 3165 3165 3165 3164 3164 3164 3164 3163 3163 3162 3162 3161 3161 3160 3160 3159 3159 3159 3158 3158 3157 3157 3156 3156 3156 3156 3156 3156 3155 3155 3154 3154 3153 3152 3152 3151 3150 3150 3149 3149 3148 3148 3147 3147 3146 3146 3145 3145 3144 3144 3144 3144 3144 3144 3144 3144 3144 3143 3143 3142 3142 3141 3141 3141 3141 3141 3140 3140 3139 3139 3139 3139 3139 3139 3139 3138 3138 3138 3138 3138 3137 3137 3137 3137
3169 3169 3169 3169 3169 3169 3168 3168 3168 3168 3167 3167 3167 3166 3166 3166 3166 3166 3166 3165 3165 3165 3164 3164 3164 3163 3163 3162 3162 3161 3161 3160 3160 3159 3159 3159 3158 3158 3157 3157 3156 3156 3156 3155 3155 3155 3155 3154 3154 3153 3153 3152 3151 3151 3150 3150 3149 3149 3148 3148 3147 3146 3146 3145 3145 3144 3144 3144 3144 3143 3143 3143 3143 3143 3143 3142 3142 3142 3141 3141 3140 3140 3140 3140 3140 3140 3139 3139 3139 3138 3138 3138 3138 3138 3138 3137 3137 3137 3137 3136 3136 3136 3136
3169 3169 3169 3168 3168 3168 3168 3168 3168 3167 3167 3166 3166 3166 3166 3165 3165 3165 3165 3165 3165 3164 3164 3164 3164 3163 3163 3162 3162 3161 3161 3160 3160 3159 3159 3158 3158 3157 3157 3156 3156 3155 3155 3155 3154 3154 3154 3154 3153 3153 3152 3151 3151 3150 3149 3149 3149 3148 3147 3147 3146 3145 3145 3144 3144 3144 3143 3143 3142 3142 3142 3142 3142 3141 3141 3141 3141 3140 3140 3140 3139 3139 3139 3139 3139 3139 3139 3138 3138 3137 3137 3137 3137 3137 3137 3136 3136 3136 3136 3136 3135 3135 3135
3168 3168 3168 3168 3168 3168 3167 3167 3167 3167 3166 3166 3166 3165 3165 3165 3165 3165 3165 3164 3164 3164 3164 3163 3163 3163 3162 3162 3161 3161 3160 3160 3159 3159 3159 3158 3158 3157 3157 3156 3155 3155 3155 3154 3154 3154 3153 3153 3152 3152 3151 3150 3150 3149 3149 3148 3148 3147 3146 3146 3145 3144 3144 3143 3143 3142 3142 3142 3141 3141 3141 3141 3141 3140 3140 3140 3140 3139 3139 3139 3139 3139 3139 3139 3139 3138 3138 3138 3137 3137 3136 3136 3136 3136 3136 3135 3135 3135 3135 3135 3134 3134 3134
3168 3168 3168 3167 3167 3167 3167 3167 3167 3166 3166 3166 3165 3165 3164 3164 3164 3164 3164 3164 3164 3164 3163 3163 3163 3162 3162 3161 3161 3160 3160 3159 3159 3159 3159 3158 3158 3157 3157 3156 3155 3155 3154 3154 3154 3153 3153 3152 3151 3151 3150 3149 3149 3148 3148 3147 3146 3146 3145 3145 3144 3144 3143 3142 3142 3141 3141 3140 3140 3140 3140 3140 3140 3139 3139 3139 3139 3138 3138 3138 3138 3138 3138 3138 3138 3138 3137 3137 3136 3136 3135 3135 3135 3135 3135 3135 3134 3134 3134 3134 3134 3134 3133
3167 3167 3167 3167 3167 3166 3166 3166 3166 3166 3165 3165 3165 3164 3164 3164 3164 3164 3163 3163 3163 3163 3162 3162 3162 3161 3161 3161 3160 3160 3159 3159 3159 3158 3158 3158 3157 3157 3156 3155 3154 3154 3154 3153 3153 3152 3152 3151 3151 3150 3149 3149 3148 3147 3146 3146 3145 3145 3144 3144 3143 3143 3142 3141 3141 3140 3140 3139 3139 3139 3139 3139 3139 3138 3138 3138 3138 3137 3137 3137 3137 3137 3137 3137 3137 3137 3137 3136 3136 3135 3135 3134 3134 3134 3134 3134 3134 3134 3133 3133 3133 3133 3132
3166 3166 3166 3166 3166 3166 3165 3165 3165 3165 3165 3164 3164 3164 3164 3163 3163 3163 3163 3162 3162 3162 3162 3161 3161 3161 3160 3160 3159 3159 3159 3158 3158 3157 3157 3156 3156 3155 3155 3154 3154 3153 3153 3152 3152 3152 3151 3150 3150 3149 3148 3147 3147 3146 3145 3145 3144 3144 3143 3143 3142 3142 3141 3140 3140 3139 3139 3139 3138 3138 3138 3138 3138 3137 3137 3137 3137 3136 3136 3136 3136 3136 3136 3136 3136 3136 3136 3135 3135 3134 3134 3134 3134 3133 3133 3133 3133 3133 3133 3132 3132 3132 3131
3165 3165 3165 3165 3165 3165 3165 3164 3164 3164 3164 3164 3164 3163 3163 3163 3162 3162 3162 3162 3161 3161 3161 3160 3160 3160 3159 3159 3159 3158 3158 3157 3157 3156 3156 3155 3155 3154 3154 3153 3152 3152 3152 3151 3151 3151 3150 3149 3149 3148 3147 3146 3146 3145 3144 3144 3143 3143 3142 3142 3141 3140 3140 3139 3139 3138 3138 3138 3137 3137 3137 3137 3136 3136 3136 3136 3135 3135 3135 3135 3135 3135 3135 3135 3135 3135 3135 3135 3134 3134 3134 3133 3133 3133 3132 3132 3132 3132 3132 3131 3131 3131 3130
3164 3164 3164 3164 3164 3164 3164 3164 3163 3163 3163 3163 3163 3162 3162 3162 3161 3161 3161 3161 3160 3160 3160 3159 3159 3159 3159 3158 3158 3157 3156 3156 3155 3155 3154 3154 3154 3153 3152 3152 3151 3151 3150 3150 3150 3149 3149 3149 3148 3147 3146 3145 3144 3144 3143 3143 3142 3142 3141 3140 3140 3139 3139 3138 3138 3137 3137 3137 3136 3136 3136 3136 3135 3135 3135 3135 3134 3134 3134 3134 3134 3134 3134 3134 3134 3134 3134 3134 3134 3133 3133 3132 3132 3132 3132 3131 3131 3131 3131 3130 3130 3130 3129
3163 3163 3164 3164 3163 3163 3163 3163 3162 3162 3162 3162 3162 3162 3161 3161 3161 3160 3160 3160 3159 3159 3159 3159 3158 3158 3158 3157 3157 3156 3156 3155 3154 3154 3154 3153 3152 3152 3151 3150 3150 3149 3149 3149 3149 3149 3148 3148 3147 3146 3145 3144 3144 3143 3142 3142 3141 3140 3140 3139 3139 3138 3138 3137 3137 3136 3136 3135 3135 3135 3135 3135 3134 3134 3134 3134 3134 3134 3133 3133 3133 3133 3133 3133 3133 3133 3133 3133 3133 3132 3132 3132 3131 3131 3131 3130 3130 3130 3130 3129 3129 3129 3129
3163 3163 3163 3163 3163 3162 3162 3162 3161 3161 3161 3161 3161 3161 3160 3160 3160 3159 3159 3159 3159 3158 3158 3158 3158 3157 3157 3157 3156 3156 3155 3154 3154 3153 3153 3152 3151 3151 3150 3149 3149 3148 3148 3148 3148 3147 3147 3146 3146 3145 3144 3143 3143 3142 3141 3141 3140 3139 3139 3138 3138 3137 3137 3136 3136 3135 3135 3134 3134 3134 3134 3134 3134 3134 3133 3133 3133 3133 3132 3132 3132 3132 3132 3132 3132 3132 3132 3132 3131 3131 3131 3131 3130 3130 3130 3129 3129 3129 3129 3129 3128 3128 3128
3162 3162 3162 3162 3162 3161 3161 3161 3161 3160 3160 3160 3160 3160 3160 3159 3159 3159 3158 3158 3158 3158 3157 3157 3157 3157 3156 3156 3155 3155 3154 3154 3153 3153 3152 3151 3151 3150 3149 3149 3148 3147 3147 3147 3146 3146 3146 3145 3144 3144 3143 3142 3141 3141 3140 3139 3139 3139 3138 3137 3137 3136 3136 3135 3135 3134 3134 3134 3133 3133 3133 3133 3133 3133 3132 3132 3132 3132 3131 3131 3131 3131 3131 3131 3131 3131 3130 3130 3130 3130 3130 3130 3129 3129 3129 3128 3128 3128 3128 3128 3127 3127 3127
3161 3161 3161 3161 3161 3161 3161 3160 3160 3160 3159 3159 3159 3159 3159 3159 3158 3158 3158 3157 3157 3157 3157 3157 3156 3156 3155 3155 3154 3154 3153 3153 3152 3151 3151 3150 3149 3149 3148 3147 3147 3146 3146 3146 3145 3145 3144 3144 3143 3143 3142 3141 3140 3139 3139 3139 3138 3137 3137 3136 3135 3135 3134 3134 3134 3134 3133 3133 3133 3132 3132 3132 3132 3132 3131 3131 3131 3131 3130 3130 3130 3130 3130 3130 3130 3129 3129 3129 3129 3129 3129 3129 3128 3128 3128 3127 3127 3127 3127 3126 3126 3126 3126
3160 3160 3160 3160 3159 3159 3159 3159 3159 3159 3159 3159 3159 3159 3158 3158 3158 3157 3157 3157 3157 3156 3156 3156 3155 3155 3154 3154 3154 3153 3152 3151 3151 3150 3150 3149 3148 3148 3147 3146 3145 3145 3145 3144 3144 3144 3144 3143 3142 3142 3141 3140 3139 3139 3138 3137 3137 3136 3136 3135 3134 3134 3134 3133 3133 3133 3132 3132 3132 3131 3131 3131 3131 3131 3130 3130 3130 3130 3129 3129 3129 3129 3129 3129 3129 3129 3128 3128 3128 3128 3128 3127 3127 3127 3126 3126 3126 3126 3125 3125 3125 3125 3124
3159 3159 3159 3159 3159 3158 3158 3158 3158 3158 3158 3158 3158 3158 3157 3157 3157 3157 3156 3156 3156 3155 3155 3155 3154 3154 3153 3153 3152 3152 3151 3150 3149 3149 3148 3148 3147 3147 3146 3145 3144 3144 3144 3144 3143 3143 3142 3142 3141 3140 3140 3139 3138 3138 3137 3136 3136 3135 3134 3134 3134 3133 3133 3132 3132 3132 3131 3131 3131 3130 3130 3130 3130 3130 3129 3129 3129 3129 3129 3128 3128 3128 3127 3127 3127 3127 3127 3127 3127 3127 3126 3126 3126 3126 3125 3125 3125 3124 3124 3124 3124 3124 3123
3158 3158 3158 3158 3157 3157 3157 3157 3157 3157 3157 3157 3157 3157 3156 3156 3156 3156 3155 3155 3155 3154 3154 3154 3153 3152 3152 3151 3151 3150 3149 3149 3148 3148 3147 3147 3146 3145 3145 3144 3144 3143 3142 3142 3142 3142 3141 3141 3140 3139 3139 3138 3138 3137 3136 3135 3134 3134 3134 3133 3133 3132 3132 3132 3131 3131 3130 3130 3130 3129 3129 3129 3129 3129 3129 3128 3128 3128 3127 3127 3127 3126 3126 3126 3126 3126 3126 3126 3125 3125 3125 3125 3125 3124 3124 3124 3124 3123 3123 3123 3123 3122 3122
3157 3157 3156 3156 3156 3156 3155 3155 3155 3155 3155 3156 3156 3156 3155 3155 3155 3154 3154 3154 3153 3153 3152 3152 3151 3151 3150 3150 3149 3149 3148 3148 3147 3146 3146 3145 3145 3144 3144 3143 3142 3142 3141 3141 3141 3140 3140 3140 3139 3139 3138 3137 3137 3136 3135 3134 3134 3133 3132 3132 3132 3131 3131 3131 3130 3130 3129 3129 3129 3129 3129 3128 3128 3128 3128 3127 3127 3127 3126 3126 3125 3125 3125 3125 3125 3124 3124 3124 3124 3124 3124 3124 3123 3123 3123 3123 3122 3122 3122 3121 3121 3121 3120
3156 3155 3155 3155 3154 3154 3154 3154 3154 3154 3154 3154 3154 3154 3154 3154 3154 3153 3153 3152 3152 3151 3151 3150 3150 3149 3149 3149 3148 3148 3147 3146 3146 3145 3145 3144 3144 3143 3143 3142 3141 3141 3140 3140 3140 3139 3139 3139 3138 3138 3137 3136 3136 3135 3134 3134 3133 3132 3131 3131 3131 3130 3130 3130 3129 3129 3129 3128 3128 3128 3127 3127 3127 3127 3126 3126 3126 3125 3125 3125 3124 3124 3124 3124 3124 3123 3123 3123 3123 3123 3122 3122 3122 3122 3121 3121 3121 3120 3120 3120 3119 3119 3119
3154 3154 3154 3154 3153 3153 3153 3152 3152 3152 3153 3153 3153 3153 3153 3152 3152 3152 3151 3151 3150 3150 3149 3149 3149 3148 3148 3147 3147 3146 3146 3145 3145 3144 3144 3143 3143 3142 3142 3141 3141 3140 3139 3139 3139 3138 3138 3138 3137 3137 3136 3135 3135 3134 3134 3133 3132 3131 3131 3130 3130 3130 3129 3129 3129 3128 3128 3127 3127 3127 3126 3126 3126 3126 3125 3125 3125 3124 3124 3124 3123 3123 3123 3122 3122 3122 3122 3122 3121 3121 3121 3121 3120 3120 3120 3119 3119 3119 3119 3118 3118 3118 3117
3153 3153 3152 3152 3152 3151 3151 3151 3151 3151 3151 3151 3151 3151 3151 3151 3150 3150 3150 3149 3149 3148 3148 3147 3147 3146 3146 3146 3145 3145 3144 3144 3144 3143 3143 3142 3142 3141 3141 3140 3140 3139 3139 3138 3137 3137 3137 3136 3136 3135 3135 3134 3134 3134 3133 3132 3131 3131 3130 3129 3129 3129 3129 3128 3128 3127 3127 3127 3126 3126 3125 3125 3125 3124 3124 3124 3124 3123 3123 3123 3122 3122 3121 3121 3121 3120 3120 3120 3120 3119 3119 3119 3119 3118 3118 3118 3118 3117 3117 3117 3116 3116 3115
3151 3151 3151 3150 3150 3150 3150 3150 3150 3150 3150 3150 3150 3150 3149 3149 3149 3149 3148 3148 3147 3147 3146 3146 3145 3145 3144 3144 3144 3144 3143 3143 3143 3142 3142 3141 3140 3140 3140 3139 3139 3138 3138 3137 3136 3136 3136 3135 3135 3134 3134 3134 3133 3133 3132 3132 3131 3130 3129 3129 3129 3128 3128 3127 3127 3126 3126 3125 3125 3125 3124 3124 3124 3124 3123 3123 3123 3122 3122 3121 3121 3120 3120 3120 3119 3119 3119 3119 3118 3118 3118 3117 3117 3116 3116 3116 3116 3115 3115 3115 3114 3114 3113
3150 3149 3149 3149 3149 3149 3149 3149 3149 3149 3149 3149 3148 3148 3148 3148 3147 3147 3147 3146 3146 3145 3145 3144 3144 3143 3143 3143 3142 3142 3142 3142 3141 3141 3141 3140 3140 3139 3139 3139 3138 3138 3137 3136 3136 3135 3135 3134 3134 3134 3133 3133 3132 3132 3131 3131 3130 3130 3129 3129 3128 3127 3127 3126 3126 3125 3124 3124 3124 3124 3123 3123 3123 3122 3122 3122 3121 3121 3120 3120 3119 3119 3119 3118 3118 3118 3117 3117 3117 3116 3116 3115 3115 3114 3114 3114 3114 3114 3113 3113 3112 3112 3111
3148 3148 3148 3148 3148 3148 3148 3148 3148 3147 3147 3147 3147 3147 3146 3146 3146 3145 3145 3145 3144 3144 3143 3143 3143 3142 3141 3141 3141 3141 3141 3140 3140 3140 3140 3139 3139 3139 3138 3138 3137 3137 3136 3135 3135 3134 3134 3134 3133 3133 3132 3132 3132 3131 3131 3130 3129 3129 3129 3128 3128 3127 3126 3125 3125 3124 3124 3123 3123 3122 3122 3122 3121 3121 3121 3120 3120 3119 3119 3119 3118 3118 3117 3117 3116 3116 3116 3115 3115 3114 3114 3114 3113 3113 3112 3112 3112 3111 3111 3111 3110 3110 3109
3147 3146 3146 3146 3146 3146 3146 3146 3146 3146 3146 3145 3145 3145 3145 3144 3144 3144 3144 3143 3143 3142 3142 3141 3141 3141 3140 3140 3140 3139 3139 3139 3139 3139 3139 3138 3138 3138 3137 3137 3136 3136 3135 3135 3134 3133 3133 3132 3132 3132 3131 3131 3131 3130 3130 3129 3129 3128 3128 3127 3127 3126 3126 3125 3124 3124 3123 3122 3122 3121 3121 3120 3120 3119 3119 3119 3118 3118 3117 3117 3116 3116 3115 3115 3115 3114 3114 3114 3113 3113 3112 3112 3111 3111 3110 3110 3109 3109 3109 3109 3108 3108 3107
3145 3145 3145 3145 3145 3145 3145 3144 3144 3144 3144 3144 3144 3144 3143 3143 3143 3142 3142 3141 3141 3141 3140 3140 3139 3139 3139 3139 3139 3139 3138 3138 3138 3138 3138 3137 3137 3137 3136 3136 3135 3135 3134 3134 3134 3133 3132 3131 3131 3130 3130 3130 3130 3129 3129 3128 3128 3127 3127 3126 3126 3125 3125 3124 3124 3123 3122 3122 3121 3120 3120 3119 3119 3118 3118 3117 3117 3116 3116 3115 3115 3114 3114 3113 3113 3113 3112 3112 3111 3111 3110 3110 3109 3109 3108 3108 3108 3107 3107 3106 3106 3105 3105
3144 3144 3144 3143 3143 3143 3143 3143 3143 3143 3142 3142 3142 3142 3142 3141 3141 3141 3140 3140 3140 3139 3139 3139 3138 3138 3138 3138 3138 3137 3137 3137 3137 3137 3136 3136 3136 3136 3135 3135 3135 3134 3134 3133 3133 3132 3131 3130 3130 3129 3129 3129 3129 3128 3128 3127 3127 3126 3126 3125 3125 3124 3124 3123 3123 3122 3121 3120 3120 3119 3119 3118 3117 3117 3116 3115 3115 3114 3114 3114 3113 3113 3112 3112 3111 3111 3110 3110 3109 3109 3109 3108 3107 3107 3106 3106 3105 3105 3104 3104 3103 3103 3102
3142 3142 3142 3142 3142 3142 3141 3141 3141 3141 3141 3141 3141 3141 3140 3140 3139 3139 3139 3139 3139 3138 3138 3137 3137 3137 3137 3136 3136 3136 3136 3136 3136 3135 3135 3135 3135 3135 3134 3134 3134 3133 3133 3132 3132 3131 3131 3130 3129 3129 3128 3128 3128 3127 3127 3126 3125 3125 3124 3124 3124 3123 3123 3122 3121 3121 3120 3119 3119 3118 3117 3117 3116 3115 3114 3114 3113 3113 3112 3112 3111 3111 3110 3110 3109 3109 3108 3108 3107 3107 3106 3106 3105 3104 3104 3103 3103 3102 3102 3101 3100 3100 3100
3141 3140 3140 3140 3140 3140 3140 3140 3140 3139 3139 3139 3139 3139 3139 3139 3138 3138 3138 3137 3137 3137 3136 3136 3136 3136 3135 3135 3135 3135 3135 3134 3134 3134 3134 3134 3134 3134 3134 3133 3133 3133 3132 3132 3131 3130 3130 3129 3129 3128 3128 3127 3127 3126 3126 3125 3124 3124 3123 3123 3122 3122 3121 3120 3120 3119 3118 3118 3117 3116 3116 3115 3114 3114 3113 3112 3111 3111 3110 3110 3109 3109 3108 3108 3107 3107 3106 3106 3105 3105 3104 3104 3103 3102 3101 3101 3100 3099 3099 3098 3098 3097 3097
3139 3139 3139 3139 3139 3139 3139 3138 3138 3138 3138 3138 3138 3138 3138 3137 3137 3137 3136 3136 3136 3136 3135 3135 3134 3134 3134 3134 3134 3134 3134 3133 3133 3133 3133 3133 3133 3133 3132 3132 3132 3132 3131 3131 3130 3129 3129 3129 3128 3127 3127 3126 3126 3125 3124 3124 3123 3123 3122 3121 3121 3120 3120 3119 3119 3118 3117 3116 3115 3115 3114 3114 3113 3112 3111 3110 3109 3109 3108 3108 3107 3107 3106 3106 3105 3105 3104 3104 3103 3103 3102 3101 3100 3099 3099 3098 3098 3097 3096 3096 3095 3095 3094
3138 3138 3137 3137 3137 3137 3137 3137 3137 3137 3137 3137 3137 3137 3136 3136 3135 3135 3135 3135 3134 3134 3134 3134 3134 3133 3133 3133 3133 3133 3132 3132 3132 3132 3132 3132 3131 3131 3131 3131 3131 3130 3130 3130 3129 3129 3128 3128 3127 3127 3126 3125 3125 3124 3124 3123 3122 3122 3121 3120 3120 3119 3119 3118 3117 3116 3116 3115 3114 3113 3113 3112 3111 3110 3110 3109 3108 3107 3106 3106 3105 3104 3104 3104 3103 3102 3102 3101 3101 3100 3100 3099 3098 3097 3097 3096 3095 3094 3094 3093 3092 3092 3091
3136 3136 3136 3136 3136 3136 3136 3136 3136 3136 3136 3136 3136 3135 3135 3134 3134 3134 3134 3134 3133 3133 3133 3132 3132 3132 3132 3131 3131 3131 3131 3131 3131 3131 3131 3130 3130 3130 3130 3130 3129 3129 3129 3129 3128 3127 3127 3127 3126 3126 3125 3124 3124 3123 3123 3122 3121 3121 3120 3119 3119 3118 3118 3117 3116 3115 3114 3114 3113 3112 3111 3111 3110 3109 3108 3107 3106 3105 3105 3104 3103 3103 3102 3101 3101 3100 3099 3099 3099 3098 3097 3097 3096 3095 3094 3094 3093 3092 3091 3090 3090 3089 3089
3134 3134 3134 3134 3134 3134 3134 3134 3134 3134 3134 3134 3134 3134 3134 3133 3133 3133 3132 3132 3132 3132 3131 3131 3131 3130 3130 3130 3130 3130 3129 3129 3129 3129 3129 3129 3129 3129 3129 3129 3128 3128 3128 3127 3127 3126 3126 3125 3125 3125 3124 3124 3123 3122 3122 3121 3120 3120 3119 3119 3118 3117 3116 3116 3115 3114 3114 3113 3112 3111 3110 3109 3109 3108 3107 3106 3105 3104 3103 3102 3101 3100 3100 3099 3099 3098 3097 3096 3096 3095 3094 3094 3093 3093 3092 3091 3090 3089 3089 3088 3087 3086 3086
3133 3133 3133 3133 3133 3133 3133 3133 3133 3133 3133 3133 3133 3133 3132 3132 3132 3131 3131 3131 3130 3130 3130 3130 3129 3129 3129 3129 3129 3128 3128 3128 3128 3128 3128 3128 3128 3128 3127 3127 3127 3127 3126 3126 3126 3125 3125 3124 3124 3124 3123 3123 3122 3121 3121 3120 3119 3119 3118 3117 3117 3116 3115 3114 3114 3113 3112 3112 3111 3110 3109 3108 3107 3106 3105 3104 3103 3102 3101 3100 3099 3098 3097 3097 3096 3095 3094 3094 3093 3092 3092 3091 3090 3090 3089 3088 3088 3087 3086 3085 3084 3084 3083
3132 3132 3132 3132 3132 3132 3132 3132 3132 3132 3132 3132 3131 3131 3131 3130 3130 3130 3129 3129 3129 3129 3129 3128 3128 3128 3128 3127 3127 3127 3127 3127 3127 3127 3127 3127 3127 3126 3126 3126 3126 3125 3125 3125 3124 3124 3124 3123 3123 3123 3122 3121 3121 3120 3119 3119 3118 3118 3117 3116 3116 3115 3114 3113 3112 3112 3111 3110 3109 3108 3107 3106 3105 3104 3103 3102 3101 3100 3099 3098 3097 3096 3095 3094 3093 3092 3092 3091 3090 3089 3089 3088 3088 3087 3086 3085 3085 3084 3083 3083 3082 3081 3080
3131 3131 3130 3130 3130 3130 3131 3131 3131 3131 3130 3130 3130 3130 3129 3129 3129 3129 3128 3128 3128 3127 3127 3126 3126 3126 3126 3126 3126 3126 3125 3125 3125 3125 3125 3125 3125 3125 3125 3125 3124 3124 3124 3124 3123 3123 3123 3122 3122 3121 3121 3120 3119 3119 3118 3118 3117 3116 3116 3115 3114 3114 3113 3112 3111 3110 3109 3108 3107 3106 3105 3104 3104 3103 3101 3100 3099 3098 3097 3096 3095 3094 3093 3092 3091 3090 3089 3088 3087 3087 3086 3085 3084 3084 3083 3083 3082 3081 3080 3079 3079 3078 3077
3129 3129 3129 3129 3129 3129 3129 3129 3129 3129 3129 3129 3129 3129 3128 3128 3128 3127 3127 3127 3126 3126 3125 3125 3125 3125 3125 3125 3125 3124 3124 3124 3124 3124 3124 3124 3124 3124 3124 3124 3123 3123 3123 3122 3122 3121 3121 3120 3120 3120 3119 3119 3118 3118 3117 3116 3116 3115 3114 3114 3113 3112 3111 3110 3109 3109 3108 3107 3106 3105 3104 3103 3102 3101 3099 3099 3097 3096 3095 3094 3093 3092 3091 3090 3089 3088 3087 3086 3085 3084 3083 3083 3082 3081 3080 3080 3079 3078 3077 3076 3076 3075 3074
3128 3128 3128 3128 3128 3128 3128 3128 3128 3128 3128 3128 3127 3127 3127 3127 3126 3126 3126 3125 3125 3124 3124 3124 3124 3123 3123 3123 3123 3123 3123 3123 3123 3123 3123 3123 3123 3122 3122 3122 3122 3121 3121 3121 3120 3120 3119 3119 3119 3118 3118 3117 3117 3116 3115 3115 3114 3114 3113 3112 3111 3110 3109 3109 3108 3107 3106 3105 3104 3103 3102 3101 3100 3099 3098 3096 3095 3094 3093 3092 3091 3090 3089 3088 3087 3086 3085 3084 3083 3082 3081 3080 3079 3079 3078 3077 3076 3075 3074 3074 3073 3072 3071
3126 3126 3126 3126 3126 3126 3126 3126 3126 3126 3126 3126 3126 3125 3125 3125 3125 3124 3124 3124 3124 3123 3123 3122 3122 3122 3122 3122 3122 3121 3121 3121 3121 3121 3121 3121 3121 3121 3121 3121 3120 3120 3120 3119 3119 3119 3118 3117 3117 3117 3116 3116 3115 3114 3114 3113 3113 3112 3111 3110 3109 3109 3108 3107 3106 3105 3104 3103 3102 3101 3100 3099 3098 3097 3095 3094 3093 3092 3091 3089 3089 3087 3086 3086 3085 3084 3083 3082 3081 3080 3079 3078 3077 3076 3076 3075 3074 3073 3072 3071 3070 3069 3068
3124 3124 3124 3124 3124 3124 3124 3124 3124 3124 3124 3124 3124 3124 3124 3123 3123 3123 3123 3123 3122 3122 3121 3121 3121 3121 3121 3121 3120 3120 3120 3119 3119 3119 3119 3119 3119 3119 3119 3119 3119 3119 3118 3118 3118 3117 3116 3116 3115 3115 3114 3114 3113 3113 3112 3111 3111 3110 3109 3109 3108 3107 3106 3105 3104 3103 3102 3101 3100 3099 3098 3097 3096 3094 3093 3092 3091 3089 3088 3087 3086 3085 3084 3083 3082 3082 3081 3080 3079 3078 3077 3076 3075 3074 3074 3073 3072 3071 3070 3069 3068 3067 3066
3123 3123 3123 3123 3123 3123 3123 3123 3122 3122 3122 3122 3122 3122 3122 3122 3121 3121 3121 3121 3121 3120 3120 3119 3119 3119 3119 3119 3119 3119 3118 3118 3118 3118 3118 3118 3118 3118 3118 3118 3118 3117 3117 3117 3116 3116 3115 3114 3114 3113 3113 3112 3111 3111 3110 3109 3109 3108 3107 3107 3106 3105 3104 3103 3102 3101 3100 3099 3098 3097 3095 3094 3093 3092 3091 3090 3089 3087 3086 3085 3084 3083 3082 3081 3080 3079 3079 3078 3077 3076 3075 3074 3073 3072 3071 3070 3070 3069 3068 3067 3066 3064 3064
3121 3121 3121 3121 3121 3121 3121 3121 3121 3121 3121 3120 3120 3120 3120 3120 3120 3120 3119 3119 3119 3119 3119 3119 3118 3117 3117 3117 3117 3117 3117 3117 3117 3117 3117 3117 3117 3117 3117 3116 3116 3116 3116 3115 3115 3114 3113 3113 3112 3112 3111 3110 3109 3109 3108 3107 3107 3106 3105 3104 3104 3103 3102 3101 3100 3099 3098 3097 3096 3094 3093 3092 3091 3090 3089 3087 3086 3085 3084 3082 3081 3080 3079 3079 3078 3077 3076 3075 3074 3073 3073 3072 3071 3070 3069 3069 3068 3067 3066 3065 3064 3063 3061
3119 3119 3119 3119 3119 3119 3119 3119 3119 3119 3119 3119 3119 3119 3119 3119 3118 3118 3118 3118 3117 3117 3117 3117 3117 3116 3116 3116 3116 3116 3116 3115 3115 3115 3115 3115 3115 3115 3115 3115 3115 3114 3114 3114 3113 3113 3112 3111 3111 3110 3109 3109 3108 3107 3106 3105 3104 3104 3103 3102 3102 3101 3100 3099 3098 3097 3095 3094 3094 3092 3091 3089 3088 3087 3086 3085 3083 3082 3081 3079 3078 3077 3077 3076 3075 3074 3073 3072 3071 3071 3070 3069 3068 3068 3067 3066 3065 3064 3064 3063 3062 3060 3059
3118 3118 3118 3118 3118 3118 3118 3118 3118 3117 3117 3117 3117 3117 3117 3117 3117 3116 3116 3116 3116 3115 3116 3116 3115 3115 3114 3114 3114 3114 3114 3114 3114 3114 3114 3114 3114 3114 3114 3114 3113 3113 3113 3112 3111 3111 3110 3110 3109 3109 3108 3108 3106 3105 3104 3103 3102 3102 3101 3100 3099 3099 3098 3097 3095 3094 3093 3092 3091 3090 3089 3087 3086 3084 3083 3082 3081 3079 3078 3077 3076 3075 3074 3073 3072 3071 3070 3069 3069 3068 3067 3066 3066 3065 3064 3063 3063 3062 3061 3060 3059 3058 3057
3115 3115 3115 3116 3116 3116 3116 3116 3116 3116 3115 3115 3115 3115 3115 3115 3115 3115 3114 3114 3114 3114 3114 3114 3114 3113 3113 3113 3113 3113 3113 3113 3113 3113 3113 3112 3112 3112 3112 3112 3112 3111 3111 3110 3110 3109 3109 3109 3108 3107 3107 3106 3105 3104 3103 3102 3100 3100 3099 3099 3098 3097 3096 3095 3094 3093 3091 3090 3089 3088 3086 3085 3084 3082 3080 3079 3078 3077 3075 3074 3073 3072 3071 3070 3069 3069 3068 3067 3066 3065 3064 3064 3063 3062 3061 3060 3059 3059 3058 3057 3056 3055 3054
3114 3114 3114 3114 3114 3114 3114 3114 3114 3114 3114 3114 3114 3114 3113 3113 3113 3113 3113 3113 3113 3113 3112 3112 3112 3112 3111 3111 3111 3111 3111 3111 3111 3111 3111 3111 3111 3110 3110 3110 3110 3109 3109 3109 3108 3108 3107 3107 3106 3106 3105 3104 3104 3104 3103 3102 3100 3099 3098 3097 3096 3095 3094 3093 3092 3091 3089 3088 3087 3086 3084 3083 3081 3080 3078 3077 3075 3074 3073 3071 3070 3069 3069 3068 3067 3066 3065 3064 3063 3062 3062 3061 3060 3059 3058 3057 3056 3055 3055 3054 3053 3052 3051